Wind_Speed
19 22 24 25 24 23 22 20 19 17 17 16 17 18 19 19 20 20 19 19 19 18 18 15 13 13 18 24 26 25 24 23 23 22 22 20 20 20 20 19 18 17 17 17 16 16 16 16 16 16 15 14 13 11 10 8 7 6 5 5 5 6 5 5 5 5 5 5 4 3 2 1 1 0 1 2 2 3 4 5 6 7 7 8 8
19 23 25 25 24 24 23 23 22 20 19 19 18 18 20 20 21 21 19 19 20 20 21 20 17 15 15 20 25 26 26 25 24 24 24 23 22 21 21 21 20 19 19 19 18 18 18 17 17 17 16 15 14 13 12 11 9 8 7 6 6 6 6 6 5 5 5 5 5 4 3 1 1 2 2 2 3 3 4 5 6 7 8 8 8
20 23 24 23 21 20 20 21 21 20 21 21 19 18 19 20 21 21 20 20 22 22 22 22 21 19 18 18 21 25 27 26 26 26 26 25 24 23 22 22 22 21 20 20 20 20 20 19 18 18 18 17 16 15 14 13 12 10 9 8 8 7 7 6 6 5 5 5 5 4 3 2 2 2 3 3 3 3 4 5 5 7 8 8 8
21 22 21 20 20 20 19 18 19 21 24 24 21 19 20 21 21 22 22 22 23 24 24 25 24 23 22 21 20 22 26 28 28 28 28 27 26 25 24 23 23 24 23 22 22 22 22 21 20 20 19 18 17 17 16 15 13 12 11 10 10 9 8 7 7 6 5 5 5 4 4 3 2 2 2 2 3 3 4 4 5 6 7 8 8
20 20 20 20 21 22 21 20 21 22 24 25 24 24 23 22 22 22 23 24 24 25 26 28 28 27 25 25 23 21 22 26 29 30 30 29 29 28 27 25 25 25 25 25 24 24 24 23 22 22 21 20 19 18 17 16 15 14 13 12 12 11 10 9 8 7 7 6 5 5 4 4 3 3 2 1 2 2 3 3 4 5 7 8 8
22 21 22 23 24 25 24 23 22 22 23 24 24 25 25 24 22 22 24 25 25 26 27 29 31 30 28 27 26 24 21 23 27 30 31 31 31 30 29 28 27 26 27 27 27 26 26 25 25 24 23 22 22 20 19 18 17 16 15 14 14 13 12 11 10 9 8 7 6 5 5 4 4 3 2 1 0 1 2 2 3 4 6 7 7
26 26 27 29 29 30 29 27 23 22 23 25 25 25 27 27 25 24 24 25 26 27 28 30 32 32 29 28 28 27 24 22 23 27 29 31 32 32 32 31 30 28 28 28 28 28 28 28 27 26 26 25 24 23 22 20 19 18 17 16 16 15 14 13 12 11 10 9 8 7 6 5 4 4 3 2 1 1 1 2 2 3 4 5 6
28 28 28 29 31 33 33 31 26 24 23 26 28 27 28 29 28 28 26 26 27 28 29 31 32 32 31 30 30 29 27 24 23 23 26 29 32 33 34 34 33 31 30 30 30 29 29 29 29 29 28 27 26 25 24 23 22 20 19 18 18 17 16 15 14 13 12 11 10 8 7 6 5 4 4 3 3 2 1 1 1 1 2 3 4
30 28 26 27 29 32 33 30 29 29 29 29 31 32 31 31 31 31 28 26 27 28 29 30 31 32 33 32 32 31 29 27 25 23 24 26 30 33 34 35 35 34 33 32 32 31 31 30 31 31 30 30 29 28 27 26 24 23 22 21 20 19 18 17 15 14 14 13 12 10 9 7 6 5 4 4 3 3 2 1 1 1 1 1 2
29 28 27 28 28 27 28 28 29 32 33 32 31 33 35 36 35 33 30 27 26 27 29 30 29 30 32 33 33 33 32 30 28 25 24 25 28 30 33 35 36 37 36 35 34 33 33 32 32 32 32 32 31 30 30 29 27 26 25 23 22 21 19 18 17 16 15 14 13 12 11 10 8 7 6 5 4 4 3 2 2 1 1 1 0
28 30 30 31 31 29 27 28 28 29 31 30 28 31 35 37 37 37 35 32 29 28 29 31 31 31 32 33 33 33 34 34 32 29 27 26 27 29 31 33 35 37 38 38 37 36 35 34 34 33 33 34 34 33 32 31 30 29 27 25 24 23 22 20 19 18 17 15 14 13 12 11 11 10 8 7 6 5 5 4 3 3 2 2 2
28 30 31 32 33 33 31 30 29 30 31 30 28 29 30 31 31 34 35 34 32 32 32 33 32 31 32 32 33 34 35 35 34 33 31 29 28 28 30 31 33 36 38 39 39 39 37 36 35 35 35 35 35 35 34 33 32 31 29 27 26 25 24 22 21 20 18 17 17 15 14 13 12 11 10 10 9 8 7 6 5 5 4 4 4
27 29 31 32 32 32 31 30 29 30 31 30 30 30 30 29 30 31 33 33 34 35 35 35 33 32 31 32 34 35 35 35 34 35 35 33 31 30 30 31 32 33 36 38 40 40 40 38 37 36 36 35 36 36 36 36 34 33 31 30 28 27 26 25 23 22 20 19 18 17 16 14 13 12 12 11 10 10 9 8 8 7 7 6 6
28 29 30 31 31 31 30 29 28 28 29 29 28 29 29 30 31 32 33 33 33 35 37 36 35 35 34 34 34 34 35 35 35 36 37 37 35 33 33 32 32 32 34 36 38 40 41 40 39 38 37 37 37 37 38 38 36 35 33 32 30 29 28 26 25 23 22 21 20 18 18 16 15 14 13 12 11 11 10 10 9 9 9 8 8
28 28 29 30 30 30 31 30 30 29 28 28 28 29 30 31 32 33 34 33 31 33 36 37 38 38 38 37 36 37 37 36 37 38 38 38 38 37 36 34 34 34 33 33 34 37 39 41 41 41 40 39 38 38 39 39 38 36 36 34 33 31 29 28 26 25 24 23 21 20 19 17 16 15 13 12 12 11 11 11 10 10 10 9 9
29 29 29 29 30 30 31 32 32 31 30 29 29 30 32 33 34 34 33 32 30 31 33 35 39 41 39 37 38 41 38 36 39 40 40 39 39 39 39 38 37 37 34 32 32 33 36 38 41 42 42 42 41 40 40 40 39 39 38 36 35 33 31 30 29 27 26 25 23 21 19 18 17 16 15 13 13 12 11 11 11 10 10 10 10
30 29 29 29 29 30 30 31 32 32 32 32 32 33 33 34 35 36 35 32 30 29 30 31 37 42 42 39 40 41 39 38 40 41 41 40 40 42 41 40 40 39 37 36 34 34 34 36 39 42 43 44 43 43 42 41 41 41 40 38 37 35 34 32 31 29 28 26 24 22 20 19 17 17 16 15 14 13 12 12 11 11 10 10 10
30 30 30 29 30 30 31 32 33 33 34 34 35 36 37 37 37 37 36 35 32 29 29 31 35 40 42 43 41 40 40 42 42 41 41 40 42 44 43 41 41 41 40 39 37 35 34 35 36 39 42 44 45 45 44 43 42 43 42 41 39 38 36 34 33 31 30 28 26 24 22 20 19 18 17 16 15 15 14 13 12 12 11 11 11
32 31 31 31 31 32 32 33 35 35 35 36 37 38 39 40 40 39 37 37 36 32 31 34 36 36 40 44 42 38 40 42 42 42 43 42 43 43 42 42 41 40 41 40 39 37 35 35 35 36 39 42 44 46 46 45 44 43 44 43 42 40 39 37 35 33 31 29 27 26 24 22 21 20 19 18 17 16 15 15 14 13 12 12 12
32 33 33 34 35 36 36 36 38 38 38 38 38 40 41 42 42 41 39 37 37 35 33 35 36 36 39 42 40 38 40 41 41 44 45 44 44 42 41 43 42 40 40 40 39 37 36 35 35 35 36 39 42 44 46 46 45 44 44 45 44 43 41 40 37 35 33 31 29 28 26 25 23 22 20 19 18 18 17 16 16 15 14 14 14
32 33 34 36 37 39 41 41 41 41 40 39 40 40 41 42 42 41 40 38 38 36 34 35 35 37 38 38 36 36 38 40 41 44 46 46 46 45 44 46 45 41 40 39 37 37 37 37 36 36 35 35 38 41 44 46 46 45 44 45 46 45 43 42 40 37 35 33 31 30 28 26 25 24 22 21 20 19 18 18 17 17 17 16 16
33 34 35 37 39 41 43 45 45 44 41 40 40 40 40 40 39 38 38 37 37 36 35 35 35 36 37 36 35 35 35 38 42 45 46 47 48 48 47 47 45 43 42 39 36 36 38 40 39 37 35 33 34 37 40 43 45 45 44 45 48 48 46 44 42 39 37 35 33 32 30 28 27 25 24 23 21 21 20 19 19 19 18 18 18
34 35 37 38 40 42 43 45 45 44 42 40 39 39 38 37 36 36 36 36 36 36 36 37 37 37 38 37 36 37 35 35 39 44 47 49 49 49 49 49 46 43 43 42 38 38 40 41 40 38 36 33 33 34 37 40 43 45 45 45 48 50 48 45 43 41 38 37 35 34 32 30 29 27 26 25 23 22 21 20 20 20 19 19 19
37 38 40 41 43 44 45 45 44 43 41 40 38 37 35 34 33 33 34 35 35 36 36 38 38 37 38 38 38 40 38 35 37 43 47 49 49 49 50 49 48 44 43 45 43 40 40 40 41 41 39 35 33 33 34 37 41 44 46 46 47 50 50 47 45 43 40 38 37 35 34 32 30 29 28 27 26 24 23 23 22 21 21 20 20
38 40 42 43 45 45 46 46 44 42 40 38 37 36 34 33 32 31 33 34 34 35 35 37 38 38 38 39 40 41 41 38 38 40 43 47 49 50 51 49 47 45 45 47 45 42 40 40 42 43 41 38 35 33 34 36 39 43 45 46 47 50 51 49 46 44 42 40 38 36 35 34 32 31 30 29 28 27 25 25 24 23 22 21 21
39 40 42 44 45 46 46 46 43 41 39 36 36 36 35 35 33 32 32 34 34 34 35 36 37 37 37 38 40 42 43 40 39 39 41 45 47 50 52 49 48 48 46 46 46 44 42 42 43 43 40 39 37 35 35 36 38 41 45 46 46 49 51 50 48 46 44 42 39 38 36 35 34 33 32 31 30 29 27 27 26 26 25 24 23
39 40 42 43 44 45 45 44 42 40 38 37 37 36 35 35 34 34 34 34 35 35 36 36 36 38 38 37 38 43 45 43 42 42 41 43 45 48 51 48 47 50 47 44 47 47 45 44 44 44 42 40 39 37 35 36 38 40 44 46 45 47 50 50 49 47 46 44 41 39 38 36 35 34 34 33 32 31 30 29 28 28 27 27 26
39 40 42 43 43 44 44 43 41 39 37 37 37 35 34 34 34 34 34 35 36 37 38 37 37 39 40 40 41 44 44 43 44 44 42 42 42 45 51 49 46 49 48 46 48 48 46 45 43 43 44 43 41 39 37 36 38 39 43 45 44 44 47 50 50 49 47 45 43 41 39 38 37 36 35 35 34 33 32 31 30 30 30 29 29
40 41 42 43 42 42 42 41 39 38 38 38 37 35 34 34 34 34 36 36 36 37 39 39 39 40 40 42 44 45 43 42 43 45 44 43 40 41 47 50 47 48 48 47 48 48 46 46 43 39 43 46 44 42 39 36 36 39 43 45 44 43 46 49 51 51 49 47 45 43 41 40 39 38 37 36 35 34 33 33 32 32 31 31 31
40 41 42 42 41 40 40 39 38 37 38 38 38 37 36 36 36 36 36 37 37 36 37 39 41 41 41 41 43 44 44 42 42 45 46 44 42 39 41 45 46 47 47 46 46 48 47 47 43 37 41 47 47 44 41 37 36 39 42 44 45 45 45 48 51 52 51 49 47 44 43 42 42 41 40 38 37 35 34 34 33 33 33 33 33
41 41 42 42 40 39 38 37 37 37 37 38 38 37 37 38 38 37 36 36 36 36 36 37 40 41 42 43 43 43 44 43 43 46 47 45 44 42 41 43 44 44 45 46 46 47 47 47 46 42 41 45 47 46 43 40 37 39 43 44 45 45 44 46 50 51 50 49 47 45 44 44 44 44 42 40 39 37 36 36 35 35 35 35 35
41 42 42 42 39 37 37 37 36 37 37 38 38 38 39 40 40 39 37 36 37 37 37 38 39 40 42 44 44 44 45 45 44 45 48 47 47 45 44 44 42 40 44 48 47 47 47 48 48 47 45 44 46 47 45 42 40 40 42 44 44 44 43 44 46 48 49 48 47 45 45 45 46 45 44 42 41 39 39 38 38 37 36 36 35
42 43 42 41 39 37 37 37 37 37 38 38 39 39 40 42 42 42 40 39 38 39 39 40 40 40 41 43 45 46 47 47 46 45 47 49 49 47 47 46 43 41 45 49 49 47 49 50 49 49 49 47 46 47 47 44 41 41 41 41 42 43 43 43 43 45 47 48 48 46 46 46 46 46 45 44 43 42 41 40 39 38 37 37 36
42 43 43 42 39 38 37 37 37 38 39 39 40 41 41 42 43 43 42 40 39 38 39 40 41 41 41 42 45 47 48 49 48 47 47 48 50 49 47 47 46 45 47 50 50 50 51 52 49 48 50 48 46 47 48 45 43 42 40 39 40 42 43 42 42 44 46 48 48 48 47 47 47 47 46 45 45 44 43 41 40 39 38 38 38
43 44 43 42 40 39 38 38 38 39 40 42 43 43 43 43 42 43 42 40 38 36 36 37 39 40 40 41 43 45 47 48 49 49 48 48 50 50 48 48 48 47 48 50 51 52 53 53 52 50 49 47 46 47 49 49 46 42 40 40 39 42 43 42 43 45 46 46 48 48 48 48 48 48 47 46 45 44 43 42 41 40 40 39 39
43 44 43 42 40 39 39 39 39 41 42 44 45 45 45 43 42 41 40 39 37 35 34 34 35 37 38 39 41 43 46 48 48 50 50 49 50 52 51 50 50 48 48 50 52 52 53 53 53 52 49 48 47 48 50 53 48 41 40 41 40 41 43 42 43 45 46 46 47 47 48 49 49 49 48 47 46 44 43 42 41 41 41 40 40
43 44 44 42 40 39 39 39 40 42 44 45 46 46 45 43 40 39 38 37 36 34 34 34 34 35 37 38 40 40 42 46 48 50 51 50 50 52 52 51 51 50 49 51 53 53 53 53 53 53 51 49 49 49 51 52 49 44 42 40 40 42 41 42 43 44 46 47 47 47 48 48 48 49 48 47 46 45 43 43 42 42 41 40 38
43 44 43 42 41 40 40 40 41 43 44 46 47 46 44 41 39 38 37 36 35 35 35 36 36 36 35 36 38 38 38 42 46 48 50 50 50 51 51 51 51 50 48 51 53 53 53 52 52 53 53 52 50 50 51 51 49 47 44 41 41 40 39 40 43 43 44 44 44 46 47 46 46 46 46 46 45 44 43 43 42 41 39 38 37
44 44 43 42 41 41 42 42 43 44 45 46 46 45 41 39 38 37 37 36 36 36 36 37 38 37 34 32 34 36 36 38 42 45 47 49 49 49 51 51 51 49 48 50 53 52 52 52 52 53 54 53 51 50 51 51 49 48 47 44 41 39 38 39 41 42 42 42 42 45 45 44 43 43 43 44 44 44 43 41 40 39 37 36 36
44 44 43 42 42 42 43 44 44 45 45 45 45 42 39 37 37 36 35 35 35 36 36 36 37 37 34 29 29 32 34 35 38 41 43 46 48 49 50 49 49 50 49 50 52 53 52 51 52 53 54 53 51 52 52 51 48 47 47 45 43 41 41 40 40 42 43 41 41 43 42 41 42 42 42 44 44 43 41 39 38 36 36 35 35
44 43 43 42 43 43 45 46 45 45 46 44 43 40 36 34 35 35 34 33 33 34 34 33 33 34 33 28 26 28 31 32 36 39 41 44 47 48 48 46 46 50 51 49 50 52 52 51 51 52 53 53 52 52 52 49 47 45 44 43 43 43 43 41 40 42 42 40 41 41 40 39 40 40 41 43 43 41 39 37 36 35 34 33 33
44 44 43 43 44 44 45 46 46 46 45 42 40 38 35 33 34 34 33 32 32 33 33 31 30 31 30 27 26 27 29 33 36 38 40 43 45 46 46 45 44 48 50 49 49 51 51 51 52 52 52 52 51 51 49 48 48 47 45 44 43 42 43 41 39 39 40 39 39 40 39 37 37 37 38 40 40 39 38 36 34 33 32 31 30
45 44 43 43 44 45 45 46 46 45 43 40 37 36 34 32 32 32 31 31 32 33 33 31 29 28 27 26 27 28 30 34 36 36 37 40 43 45 46 46 43 45 48 49 49 51 51 50 52 53 53 52 51 49 49 49 50 48 47 48 46 43 43 41 38 37 37 36 37 38 39 38 36 36 37 38 38 38 37 35 32 30 29 28 27
45 45 44 44 45 46 46 45 44 43 41 37 35 34 32 31 31 30 30 30 31 32 32 30 28 27 26 24 26 29 31 33 35 35 35 36 39 43 45 46 45 44 46 47 48 49 49 49 51 52 53 53 51 50 51 51 51 50 49 48 46 45 45 41 38 38 37 36 37 37 38 38 37 37 38 38 38 38 37 34 31 29 27 26 26
45 45 44 45 46 46 45 44 42 40 37 34 33 32 30 29 29 28 28 29 30 30 30 28 27 26 26 24 24 27 30 33 34 34 35 35 37 40 43 45 46 45 45 46 48 48 46 47 49 50 51 52 51 51 52 53 53 51 49 47 45 46 46 41 38 39 38 38 38 37 37 38 38 39 40 39 38 38 35 32 30 28 27 26 26
45 44 45 46 46 45 43 42 40 38 35 32 31 31 29 28 27 27 27 28 29 30 29 26 25 26 26 24 24 26 30 33 34 35 36 36 36 37 39 40 43 45 46 47 49 49 46 46 48 48 49 50 51 51 52 52 53 50 48 48 46 46 45 42 41 41 40 40 39 37 37 38 38 39 39 38 37 37 34 32 30 28 27 26 26
44 44 45 45 44 43 42 40 37 35 33 30 29 29 28 27 26 27 27 28 28 29 29 26 23 25 26 23 23 27 29 33 36 36 37 37 38 38 38 38 39 42 45 46 48 49 47 46 46 46 47 48 50 51 51 50 50 49 49 50 49 48 48 47 46 45 42 40 38 36 37 37 37 37 36 35 36 35 33 32 30 29 28 27 27
44 44 44 42 41 41 39 36 33 32 31 29 28 28 28 26 26 27 27 28 28 28 30 28 23 23 24 23 23 27 30 33 36 38 37 37 37 39 40 40 39 40 41 42 44 46 45 44 44 46 47 48 48 49 49 48 48 49 50 51 51 50 50 50 49 46 43 41 39 38 36 35 35 35 34 34 35 34 33 32 31 31 30 29 29
44 43 42 40 39 38 35 32 30 30 30 29 28 27 28 26 26 27 28 29 29 29 30 29 25 21 21 21 21 26 30 32 34 37 38 37 37 37 39 40 41 40 38 38 41 43 43 43 44 45 47 48 48 48 48 48 48 49 51 52 51 50 50 51 50 47 44 43 40 37 36 34 34 33 33 34 35 34 33 33 32 32 32 31 30
43 41 40 36 34 34 32 30 28 27 28 29 28 28 28 27 26 28 28 29 30 30 31 31 28 23 19 19 19 22 28 30 32 35 37 38 37 37 37 39 40 40 38 37 39 41 42 43 43 44 47 48 48 48 47 47 47 48 50 51 51 50 50 52 52 49 46 43 38 36 36 35 34 33 34 35 35 34 34 33 32 33 34 33 33
42 40 39 36 32 31 30 28 27 26 27 28 29 29 28 27 27 29 29 29 30 31 32 33 31 27 22 20 19 18 23 28 30 32 34 36 37 37 37 39 40 39 38 38 39 39 40 42 42 43 45 48 48 47 48 47 46 48 50 50 50 51 51 52 53 50 47 44 40 37 37 36 35 35 36 36 35 35 34 32 32 34 35 35 35
Wind_Direction
274 274 272 272 273 273 274 275 277 278 277 275 270 263 257 250 247 248 250 253 258 263 266 267 270 266 251 242 240 239 238 237 236 236 236 236 235 233 231 230 227 226 226 223 220 219 222 227 227 227 226 222 218 214 213 215 213 218 226 229 234 238 238 243 247 249 252 257 256 247 242 245 266 17 51 60 64 68 68 71 71 69 69 72 76
268 267 267 269 272 275 279 281 279 276 276 274 272 268 260 253 247 245 247 251 256 261 267 270 270 272 267 254 245 242 241 238 238 236 236 238 236 233 232 231 231 229 228 228 227 224 223 226 230 230 229 228 227 224 220 219 217 219 227 232 235 237 239 242 248 250 252 258 260 253 246 258 312 346 8 27 45 57 64 71 74 71 71 74 79
259 259 260 265 273 279 284 285 278 271 273 271 269 268 263 258 253 250 249 251 255 259 265 271 272 272 272 267 256 248 244 242 241 238 235 236 237 236 234 233 234 232 231 231 231 230 227 226 229 232 233 231 230 231 229 226 223 220 223 231 238 240 240 243 245 247 249 254 258 254 247 255 297 331 354 12 30 43 56 69 74 73 74 75 78
254 257 262 269 278 286 291 292 281 275 277 275 269 267 265 262 256 253 252 252 255 258 262 267 269 269 268 268 264 255 249 245 244 242 238 236 235 235 235 235 236 236 234 233 233 233 233 231 230 231 234 235 232 233 233 232 229 224 223 226 234 240 242 245 246 246 247 249 254 255 251 253 274 306 334 1 25 37 46 62 73 73 74 76 76
266 267 272 277 280 286 294 297 290 284 283 278 272 270 270 266 259 256 255 254 255 256 259 262 265 266 265 264 264 262 255 250 248 246 243 239 236 235 235 237 238 239 238 236 235 235 235 234 233 233 233 236 236 235 235 235 234 230 227 225 229 235 240 245 247 247 246 243 245 249 250 250 258 280 303 335 30 43 45 56 69 71 73 75 75
282 281 281 282 287 291 292 293 292 290 288 281 274 274 276 274 268 264 259 256 256 257 258 259 261 261 261 260 261 262 259 254 250 248 246 243 240 236 236 237 238 240 241 239 237 236 236 236 235 235 235 235 236 237 237 236 236 234 231 228 228 231 235 241 246 248 248 244 240 239 244 244 243 253 264 265 80 64 59 59 64 69 72 75 77
286 284 283 284 288 290 286 288 292 289 285 278 272 270 272 274 272 266 261 258 258 259 260 260 260 258 257 258 258 260 261 258 254 249 246 244 242 239 237 237 237 239 241 242 240 237 237 237 237 236 236 236 236 237 238 237 237 236 235 232 230 230 232 236 241 246 248 246 243 237 237 240 235 232 232 225 199 148 101 87 78 73 74 77 79
296 288 285 284 284 285 283 284 287 284 279 274 269 263 262 266 269 268 264 263 261 261 261 260 261 259 258 260 257 256 258 260 259 253 247 244 242 240 239 239 239 239 239 241 241 239 237 237 238 237 237 237 236 237 237 238 238 236 235 234 232 231 231 233 236 241 245 246 244 239 234 233 230 226 222 217 206 192 171 145 124 103 86 80 80
301 297 293 290 286 282 280 281 283 281 278 274 267 261 260 260 263 265 263 264 263 262 262 259 258 257 258 259 256 255 257 259 260 256 250 245 243 241 240 240 241 241 240 240 240 240 238 237 237 238 237 237 237 236 236 236 237 237 236 235 234 232 231 231 233 236 241 244 244 241 234 228 224 224 224 222 217 210 206 202 185 159 130 94 78
301 303 302 303 301 290 281 283 286 282 279 279 268 257 257 256 258 260 259 261 263 262 262 261 260 258 255 255 255 255 256 258 259 258 253 247 244 243 242 242 243 243 242 241 240 239 239 238 237 237 237 238 237 236 236 235 235 236 237 236 235 234 232 231 231 233 236 239 242 242 237 231 224 221 225 229 227 225 224 225 225 220 220 234 313
303 305 306 308 309 303 293 290 290 285 285 289 275 259 255 255 258 261 260 260 260 259 261 262 262 260 256 253 253 252 252 254 256 257 257 252 248 246 244 244 244 243 243 242 242 240 239 238 238 237 237 237 237 237 236 235 235 235 236 236 235 234 233 231 231 231 232 233 235 236 236 235 231 225 224 230 233 234 233 233 235 237 240 251 263
304 305 306 306 306 305 302 299 297 295 295 296 288 277 271 268 268 269 268 266 264 263 263 262 260 258 257 254 252 250 249 250 252 253 255 255 252 250 248 246 245 244 243 243 242 242 240 239 239 238 237 238 238 237 237 236 235 234 234 236 236 235 233 231 231 231 230 231 232 232 232 233 234 231 227 229 235 239 240 239 238 241 245 248 254
307 306 305 305 303 303 303 302 300 299 299 298 296 292 289 287 283 280 277 274 272 270 267 262 258 257 257 255 252 251 250 250 250 251 252 253 254 253 251 249 247 246 243 242 242 242 242 240 239 239 238 239 239 238 238 238 236 235 234 234 235 235 234 232 231 230 230 230 231 231 231 230 231 231 230 229 232 238 243 244 244 247 250 252 256
312 309 306 305 303 302 302 301 300 298 296 296 295 294 291 288 286 284 282 279 276 273 269 264 257 255 257 257 255 253 252 249 248 249 250 250 251 251 251 250 249 247 245 244 242 242 242 242 241 240 239 240 240 239 239 239 238 237 235 233 233 235 235 234 233 231 230 230 230 231 231 231 230 230 231 232 233 237 242 247 250 253 257 260 263
313 310 309 307 305 305 303 302 301 299 297 296 294 291 288 283 281 281 282 283 281 276 272 266 257 254 255 256 255 252 251 249 248 248 248 249 248 248 249 249 249 248 246 245 245 244 243 242 242 241 240 240 240 240 239 239 238 238 237 235 233 233 234 235 234 233 233 231 230 230 232 233 233 233 232 233 235 236 240 245 250 254 258 263 266
313 312 312 311 309 307 305 302 301 300 298 297 295 292 289 287 286 285 285 286 285 280 277 272 264 257 253 253 253 252 253 252 250 248 246 248 247 246 246 246 247 247 247 247 246 246 245 243 242 242 241 240 239 239 239 239 238 238 238 237 234 232 232 233 233 234 234 234 233 231 232 233 235 235 234 234 235 236 238 242 246 251 255 260 264
313 312 312 312 309 307 304 301 299 299 298 297 296 295 294 293 292 291 291 289 286 282 281 278 271 262 254 254 255 253 252 253 250 247 245 246 246 244 244 244 245 246 247 248 247 246 246 245 243 242 242 241 240 239 238 238 237 236 237 238 236 233 231 231 231 232 233 235 235 234 234 234 235 236 236 236 236 236 238 241 245 249 253 258 261
313 312 311 311 308 306 303 301 298 296 296 296 296 295 295 294 293 291 290 289 285 280 277 276 273 267 260 257 256 251 249 251 251 249 246 245 244 242 242 243 244 247 247 250 250 246 246 247 245 243 242 241 240 239 238 237 236 235 235 236 237 235 232 230 230 231 232 234 235 236 236 235 235 236 237 237 237 238 238 241 244 247 252 256 260
312 311 310 309 307 306 303 301 298 296 295 294 293 293 292 292 291 290 288 286 284 278 274 271 271 271 265 260 258 252 248 250 252 251 248 245 241 241 243 243 244 247 248 249 250 248 248 249 248 245 243 241 240 240 239 238 237 236 234 233 234 235 233 231 229 230 232 233 233 235 236 236 236 236 237 238 238 239 240 242 244 247 250 254 258
311 310 309 308 307 306 304 302 300 298 297 295 293 292 291 289 288 288 286 284 282 278 274 270 269 270 267 265 263 257 250 249 251 252 249 245 239 237 240 243 243 245 247 247 249 250 249 248 249 250 247 243 241 240 239 238 237 236 235 233 232 233 232 231 229 229 231 233 233 233 234 236 238 238 238 239 239 240 242 244 246 248 250 252 256
309 308 308 308 308 307 306 305 303 302 300 298 297 295 293 291 289 287 285 282 280 278 275 271 269 269 268 267 262 256 254 252 251 251 248 242 236 233 236 239 240 241 244 247 248 249 250 249 250 252 251 247 243 241 240 239 238 236 235 233 232 232 231 231 230 228 229 232 234 234 234 235 238 239 240 240 240 241 242 244 247 249 251 253 255
308 308 307 307 307 307 307 306 305 305 304 302 301 300 298 295 292 289 286 282 280 277 274 269 266 264 264 264 258 254 257 255 252 251 245 238 233 232 235 236 236 239 242 245 244 245 250 253 251 250 251 250 246 243 242 241 239 237 236 234 232 232 231 230 229 228 228 230 234 236 235 235 237 239 240 241 242 243 244 245 247 249 251 254 256
309 308 308 308 308 308 307 307 306 305 304 304 303 302 300 297 294 291 287 283 280 277 274 270 266 262 260 260 256 253 255 253 253 250 241 235 231 230 235 236 236 237 239 242 240 237 244 251 253 252 251 250 248 245 242 242 241 238 237 235 233 232 231 230 229 228 228 229 232 235 236 236 237 238 240 241 243 244 246 247 248 250 252 254 256
311 310 310 310 311 311 310 308 306 304 304 304 303 301 300 298 295 292 289 285 281 278 275 272 267 262 259 258 255 252 252 253 254 250 240 234 231 229 231 236 239 239 238 239 239 237 238 245 252 255 253 250 250 248 244 242 241 238 237 236 234 232 231 230 229 229 228 229 231 234 236 237 237 238 239 240 242 244 247 249 250 252 253 255 257
311 311 311 312 313 313 312 309 306 305 304 303 302 301 300 298 295 292 289 286 283 280 276 273 269 265 261 257 254 251 251 252 252 250 243 237 234 230 229 233 237 239 240 239 238 239 239 243 249 253 252 250 250 250 247 243 241 239 237 236 235 232 230 229 229 229 228 229 231 233 236 238 238 239 239 240 241 243 246 250 252 254 255 256 258
310 310 310 312 313 314 312 309 306 305 304 302 301 301 299 298 296 294 290 287 286 282 278 274 270 268 262 258 258 255 252 250 248 249 246 242 239 233 228 230 233 233 235 237 237 238 239 242 247 249 249 249 249 248 249 247 243 240 237 236 235 233 230 229 229 229 229 229 231 233 235 238 239 239 240 240 242 244 247 250 253 255 257 258 260
310 309 309 311 313 314 312 309 305 303 302 302 302 301 300 300 299 297 293 289 287 283 279 274 270 269 264 258 258 257 253 250 248 248 247 244 242 234 227 229 231 229 229 233 236 236 237 239 244 246 247 248 248 247 249 249 245 241 239 237 236 234 230 228 228 229 229 230 231 233 235 237 239 240 241 242 243 245 247 250 253 256 259 261 262
310 308 309 310 313 314 312 309 304 301 301 302 303 303 303 303 303 302 299 293 288 282 278 274 269 267 265 258 254 253 252 251 250 248 245 243 241 234 227 227 229 228 227 230 232 233 235 238 240 242 245 247 247 246 247 248 245 240 239 238 237 236 232 229 228 229 229 230 231 233 235 237 239 241 242 242 243 245 248 250 253 256 259 262 264
309 308 308 310 313 315 313 309 304 300 300 302 303 305 306 307 307 307 304 299 293 285 278 274 269 265 263 261 256 252 249 249 250 248 244 242 242 234 226 225 225 225 228 233 232 228 233 237 236 240 246 247 246 246 245 246 245 239 237 237 237 236 234 230 229 229 229 230 231 233 235 237 239 240 241 242 243 245 247 250 253 256 259 262 264
309 308 308 311 313 314 312 309 304 301 301 302 302 305 309 311 310 307 304 301 296 290 282 275 270 265 263 261 257 253 250 247 248 249 245 241 239 234 228 225 225 226 231 237 233 226 229 234 233 236 245 248 246 245 245 245 245 240 236 236 236 236 234 232 230 230 229 230 231 233 235 237 238 240 241 242 243 245 247 250 253 256 259 261 263
309 308 308 311 313 313 311 308 305 303 303 302 302 303 307 310 310 307 303 298 294 291 286 279 272 266 262 260 257 254 252 249 246 246 245 240 236 235 233 229 227 230 235 238 231 225 227 232 231 231 239 245 244 244 246 245 243 241 237 235 236 236 235 233 232 231 230 230 232 233 235 237 238 239 240 241 243 245 247 250 253 255 258 260 261
309 308 309 311 313 312 310 308 307 305 305 304 302 302 304 307 309 307 302 295 290 288 286 283 277 269 262 259 258 255 253 252 249 246 246 242 236 236 236 232 231 235 239 238 230 224 227 231 231 230 234 239 239 240 244 245 243 241 238 235 236 236 236 235 234 233 232 232 233 235 237 238 239 239 240 241 243 244 246 248 251 254 256 259 260
310 309 310 312 313 311 310 308 307 306 306 305 303 303 304 306 307 306 302 295 290 287 285 283 280 274 265 258 256 255 253 253 252 250 248 244 239 237 235 233 235 237 239 237 230 225 227 232 235 235 235 236 236 237 241 244 245 243 239 236 236 236 235 235 236 235 233 234 235 236 238 239 240 241 241 242 243 244 246 248 250 253 255 257 259
310 310 311 313 313 311 310 309 307 306 306 305 304 303 304 305 305 304 301 296 293 289 285 282 280 277 271 262 256 254 254 253 252 252 249 245 242 239 234 233 235 236 238 237 231 226 226 232 239 239 236 236 237 238 238 240 243 241 238 236 235 235 235 236 236 234 233 234 235 237 239 240 241 242 242 242 243 244 246 248 250 252 254 256 258
310 311 311 312 312 312 311 310 307 305 304 304 304 303 304 305 304 302 300 299 297 292 287 285 282 279 274 267 260 255 253 252 251 251 248 244 242 240 236 234 234 236 239 236 231 229 227 231 239 240 238 239 240 240 238 237 238 236 234 234 234 235 235 236 236 234 233 234 236 238 239 240 241 242 243 243 244 245 247 248 250 252 254 256 258
311 311 311 312 312 312 311 311 308 306 305 305 305 305 304 305 303 301 300 300 298 295 291 288 286 283 276 269 264 260 254 250 247 247 246 243 241 239 237 235 233 235 239 234 230 230 229 231 237 240 239 239 240 242 240 238 237 234 231 232 232 233 235 236 237 236 234 235 237 238 239 240 241 241 242 243 244 245 246 248 251 253 255 257 259
310 310 311 311 312 312 311 311 309 307 306 306 305 306 306 306 303 300 300 300 298 296 293 291 291 290 281 271 266 263 257 251 245 244 244 242 241 238 236 235 233 235 237 235 232 232 231 231 235 237 238 237 239 242 242 239 237 234 232 231 230 231 233 236 239 239 237 237 238 239 239 240 241 241 242 243 244 245 247 249 252 254 256 258 258
310 310 311 311 311 311 310 310 309 307 306 306 306 307 307 307 304 302 302 301 300 298 294 292 294 295 287 275 267 263 259 253 246 242 241 240 240 237 236 235 233 233 235 235 233 233 233 232 233 235 237 236 238 241 242 239 236 234 233 232 231 232 233 235 239 240 239 238 238 239 239 240 242 242 242 242 244 246 248 251 253 255 255 255 253
311 311 310 310 310 309 309 309 308 307 306 306 306 307 308 307 305 305 305 304 303 301 298 295 295 297 291 279 268 263 259 253 247 241 239 239 239 235 234 235 233 231 234 235 233 232 232 232 233 234 235 236 237 238 239 238 235 233 234 235 234 234 235 235 237 240 240 238 238 239 239 240 242 243 242 243 245 247 249 251 252 252 251 250 249
311 311 310 309 308 308 308 308 309 308 307 306 306 306 307 306 305 306 307 306 306 304 301 296 295 296 293 283 271 265 259 252 244 239 237 238 237 233 233 235 234 231 232 234 233 231 230 230 231 232 233 233 235 237 237 236 235 234 236 237 234 233 234 234 235 238 238 236 236 238 239 241 242 243 243 245 246 247 248 248 248 247 247 247 247
311 310 309 307 306 306 306 307 308 307 306 305 305 304 305 304 304 307 309 309 308 306 302 298 294 293 290 282 272 266 260 250 240 234 233 234 233 231 231 233 234 233 232 234 234 232 230 229 229 230 231 230 232 235 236 236 235 234 234 234 231 229 230 231 232 235 236 235 234 235 237 240 240 241 243 244 244 245 245 244 244 244 244 245 246
310 309 307 306 305 305 305 306 306 306 305 304 304 303 303 303 305 308 310 311 310 308 305 301 296 293 288 277 268 262 254 245 239 234 232 233 232 230 230 231 232 233 233 234 235 232 230 229 229 230 230 230 231 233 234 236 236 233 231 231 231 230 230 230 230 232 234 235 235 233 234 236 236 237 240 241 241 242 242 240 240 241 242 244 245
308 307 307 306 305 305 305 306 305 304 303 303 302 301 301 303 306 309 312 313 312 310 307 302 296 296 291 275 262 259 250 241 238 235 234 235 233 231 232 233 234 234 233 233 234 232 230 230 229 229 230 230 231 231 232 234 236 234 231 231 233 234 232 231 230 230 232 234 234 232 232 233 233 235 239 240 239 239 239 237 237 239 241 242 244
308 307 307 306 306 306 306 306 304 303 303 302 300 299 301 303 306 310 313 314 314 311 308 302 296 297 297 280 261 257 252 243 237 235 234 236 235 234 235 236 237 237 235 234 234 233 232 230 229 229 230 231 232 231 231 233 235 235 233 232 233 234 233 232 231 230 230 232 232 231 231 232 234 237 240 239 238 237 236 235 236 238 240 242 244
308 308 308 307 307 306 306 306 304 303 302 300 297 297 300 302 306 311 314 315 315 312 306 302 297 296 298 287 264 254 251 247 241 236 235 236 237 237 238 239 239 239 238 237 238 237 235 233 231 231 230 231 232 231 230 232 234 235 236 236 234 232 231 231 230 229 230 231 232 231 232 234 235 237 238 237 236 235 234 233 236 237 238 241 244
309 309 308 308 308 307 306 306 305 304 301 297 295 297 299 302 305 311 315 316 317 314 306 301 297 298 301 292 270 255 250 248 245 241 238 238 237 238 240 241 241 240 239 239 239 240 240 236 233 232 231 231 232 231 230 231 233 235 237 237 234 230 228 228 228 228 229 230 230 229 230 233 233 233 234 233 233 233 232 233 235 236 237 241 245
310 310 310 309 308 307 307 307 306 304 301 297 295 297 299 301 305 310 314 317 319 316 309 302 298 302 308 299 274 259 252 247 245 244 242 240 239 240 242 243 242 242 241 240 239 240 240 237 233 232 231 231 232 233 232 232 234 236 237 237 235 232 229 227 227 229 229 229 229 228 229 231 231 230 230 230 231 232 232 232 234 236 238 241 246
311 311 310 309 308 307 308 309 308 305 302 299 297 297 298 301 304 308 313 318 321 319 312 305 303 309 315 305 279 263 257 251 246 243 242 241 240 241 243 244 244 242 242 242 240 239 238 235 233 230 228 229 231 230 230 230 232 235 237 237 236 234 230 226 226 228 229 229 229 230 230 231 231 229 228 230 232 232 232 232 234 236 239 243 247
312 312 310 309 308 307 305 305 306 306 305 302 299 297 298 301 303 307 312 316 320 321 315 307 306 312 319 313 288 263 256 254 250 245 243 241 239 240 242 244 244 242 241 242 240 237 235 233 230 228 227 228 228 227 227 229 230 234 236 237 237 235 230 225 224 226 228 227 227 229 229 228 229 229 229 232 233 234 234 233 234 237 241 244 248
311 311 309 308 308 308 305 299 297 300 302 302 300 298 299 303 305 306 310 314 318 320 318 312 310 312 318 321 306 272 255 253 254 251 248 244 241 239 240 243 244 241 240 240 238 236 233 232 230 228 227 227 226 225 227 230 231 233 236 236 237 235 229 224 222 224 226 225 223 224 224 225 227 229 232 234 234 235 236 236 236 240 243 245 249
309 305 303 303 303 303 303 299 295 297 300 301 300 300 301 304 306 307 309 312 315 317 318 316 315 314 315 320 319 294 262 251 252 253 252 250 246 241 239 241 242 241 238 237 237 235 233 232 231 228 226 226 227 227 229 232 233 235 236 236 235 234 229 223 221 222 223 223 220 220 223 227 229 230 233 236 237 236 237 237 238 241 244 247 250
Height
5927 5926 5925 5925 5924 5923 5922 5921 5920 5919 5918 5917 5917 5917 5918 5919 5919 5918 5918 5917 5916 5917 5918 5919 5919 5919 5919 5919 5919 5920 5922 5923 5924 5925 5925 5926 5927 5927 5927 5928 5928 5928 5928 5928 5929 5930 5931 5931 5931 5932 5932 5932 5932 5933 5933 5933 5934 5934 5935 5935 5936 5936 5936 5936 5936 5936 5936 5936 5936 5936 5935 5935 5935 5934 5934 5934 5934 5933 5933 5933 5933 5932 5932 5931 5931
5925 5924 5923 5922 5921 5920 5920 5920 5919 5918 5917 5916 5915 5915 5915 5916 5916 5916 5915 5915 5915 5915 5916 5917 5918 5918 5917 5918 5918 5919 5920 5921 5922 5923 5924 5924 5925 5925 5926 5926 5926 5926 5927 5927 5928 5929 5929 5930 5931 5931 5931 5932 5932 5932 5932 5933 5933 5933 5934 5935 5935 5935 5935 5935 5935 5935 5935 5936 5936 5936 5936 5935 5935 5935 5934 5934 5934 5934 5933 5933 5933 5932 5932 5932 5931
5921 5920 5919 5919 5918 5918 5918 5918 5917 5916 5915 5914 5914 5913 5913 5914 5914 5914 5914 5915 5914 5914 5914 5914 5916 5916 5916 5916 5916 5917 5917 5918 5919 5920 5921 5922 5923 5923 5924 5924 5924 5925 5925 5926 5926 5927 5928 5929 5929 5930 5930 5931 5931 5931 5931 5932 5932 5933 5933 5934 5935 5935 5935 5935 5935 5935 5935 5935 5936 5936 5936 5935 5935 5935 5934 5934 5934 5934 5934 5933 5933 5933 5932 5932 5932
5918 5917 5917 5917 5916 5915 5915 5915 5914 5913 5912 5911 5911 5910 5911 5911 5912 5913 5913 5913 5913 5913 5912 5912 5913 5914 5914 5914 5914 5914 5915 5916 5917 5918 5919 5920 5920 5921 5921 5922 5922 5923 5923 5924 5924 5925 5926 5927 5928 5929 5929 5929 5930 5930 5930 5931 5931 5932 5932 5933 5934 5934 5935 5935 5935 5935 5935 5935 5935 5935 5935 5935 5935 5935 5934 5934 5934 5934 5934 5934 5933 5933 5933 5932 5932
5916 5915 5914 5914 5913 5911 5911 5911 5911 5910 5909 5908 5908 5908 5908 5909 5910 5911 5911 5911 5911 5911 5911 5910 5910 5910 5911 5911 5911 5912 5912 5913 5914 5915 5916 5917 5918 5918 5919 5920 5921 5921 5921 5922 5922 5923 5924 5925 5926 5927 5928 5928 5929 5929 5929 5930 5930 5931 5931 5932 5932 5933 5934 5934 5934 5934 5934 5934 5934 5935 5935 5935 5935 5934 5934 5934 5934 5934 5934 5934 5934 5934 5933 5933 5932
5915 5914 5912 5911 5909 5908 5908 5908 5908 5907 5907 5906 5906 5906 5906 5907 5907 5908 5909 5909 5908 5909 5909 5908 5907 5907 5908 5909 5909 5909 5909 5909 5910 5911 5913 5914 5915 5916 5916 5917 5918 5919 5919 5920 5920 5921 5922 5923 5924 5925 5926 5927 5927 5928 5928 5928 5929 5930 5930 5931 5931 5932 5933 5933 5934 5934 5934 5934 5934 5934 5934 5934 5934 5934 5934 5934 5934 5934 5934 5934 5934 5934 5934 5933 5933
5913 5912 5910 5908 5908 5907 5905 5905 5906 5906 5905 5904 5904 5904 5904 5904 5903 5904 5906 5906 5905 5906 5906 5906 5905 5905 5906 5906 5907 5907 5906 5906 5906 5907 5909 5911 5912 5913 5914 5915 5915 5916 5917 5917 5918 5918 5919 5921 5922 5923 5924 5925 5925 5926 5927 5927 5928 5928 5929 5929 5930 5930 5931 5932 5933 5933 5933 5933 5933 5933 5934 5934 5934 5934 5934 5934 5934 5934 5934 5934 5934 5934 5934 5934 5934
5910 5908 5907 5907 5907 5906 5903 5903 5903 5902 5902 5902 5901 5901 5901 5900 5900 5901 5902 5902 5902 5902 5902 5902 5902 5903 5903 5904 5905 5905 5904 5904 5904 5904 5905 5907 5908 5910 5911 5912 5913 5913 5914 5914 5915 5916 5917 5918 5919 5920 5921 5922 5923 5924 5925 5926 5926 5927 5927 5928 5928 5929 5930 5930 5931 5932 5932 5932 5933 5933 5933 5933 5933 5933 5933 5933 5933 5933 5934 5934 5934 5934 5934 5934 5934
5905 5903 5904 5905 5905 5904 5902 5901 5899 5898 5898 5898 5897 5897 5897 5897 5897 5897 5898 5898 5898 5898 5898 5898 5898 5899 5900 5901 5902 5903 5903 5902 5901 5901 5901 5902 5904 5906 5908 5909 5910 5911 5911 5912 5912 5913 5914 5915 5916 5917 5919 5920 5921 5922 5923 5924 5924 5925 5925 5926 5927 5927 5928 5929 5930 5930 5931 5932 5932 5932 5932 5932 5932 5933 5933 5933 5933 5933 5933 5933 5933 5934 5934 5934 5934
5901 5900 5900 5901 5901 5901 5900 5898 5896 5894 5893 5893 5893 5893 5893 5893 5894 5895 5895 5896 5896 5895 5895 5894 5895 5896 5897 5897 5898 5900 5900 5900 5899 5899 5898 5899 5900 5902 5904 5905 5907 5908 5908 5909 5909 5910 5910 5911 5913 5914 5916 5917 5918 5919 5920 5921 5922 5923 5923 5924 5925 5926 5926 5927 5928 5929 5930 5930 5931 5931 5931 5931 5931 5932 5932 5932 5932 5933 5933 5933 5933 5933 5933 5933 5934
5900 5898 5897 5897 5897 5898 5897 5895 5893 5891 5890 5890 5889 5889 5889 5890 5892 5892 5892 5893 5894 5893 5892 5891 5891 5892 5893 5894 5895 5896 5896 5896 5897 5897 5896 5896 5897 5898 5900 5902 5903 5904 5905 5906 5906 5907 5907 5908 5909 5911 5912 5913 5915 5916 5917 5918 5919 5920 5921 5922 5923 5924 5925 5925 5926 5927 5928 5929 5929 5930 5930 5930 5930 5931 5931 5931 5932 5932 5932 5932 5933 5933 5933 5933 5933
5901 5898 5897 5896 5895 5895 5894 5892 5890 5888 5887 5887 5887 5886 5886 5887 5888 5888 5888 5888 5889 5889 5889 5888 5888 5889 5890 5891 5891 5891 5892 5892 5894 5895 5894 5894 5894 5895 5896 5898 5899 5900 5901 5902 5903 5904 5904 5905 5906 5907 5909 5910 5912 5913 5914 5916 5917 5918 5919 5920 5921 5922 5923 5924 5924 5925 5926 5927 5927 5928 5929 5929 5929 5930 5930 5930 5931 5931 5931 5932 5932 5932 5932 5932 5933
5901 5898 5896 5895 5894 5893 5891 5890 5888 5887 5885 5885 5884 5883 5883 5883 5883 5883 5884 5884 5885 5885 5884 5883 5884 5885 5886 5887 5887 5888 5889 5889 5891 5891 5891 5891 5892 5892 5893 5894 5895 5896 5897 5898 5899 5900 5901 5902 5903 5904 5906 5907 5908 5910 5911 5913 5914 5915 5916 5917 5918 5919 5921 5921 5922 5923 5924 5925 5926 5926 5927 5927 5928 5928 5929 5929 5929 5930 5930 5930 5931 5931 5932 5932 5932
5898 5897 5895 5894 5892 5891 5889 5888 5887 5886 5884 5883 5882 5881 5880 5879 5879 5879 5879 5880 5881 5880 5878 5878 5879 5881 5881 5882 5884 5884 5885 5886 5887 5887 5887 5888 5888 5889 5889 5891 5892 5892 5893 5894 5895 5897 5898 5899 5900 5901 5902 5904 5905 5906 5908 5910 5912 5913 5914 5915 5916 5917 5918 5920 5921 5922 5923 5923 5924 5924 5925 5925 5926 5926 5927 5928 5928 5928 5929 5929 5930 5930 5931 5931 5932
5895 5894 5893 5891 5889 5888 5885 5884 5883 5883 5882 5881 5880 5879 5877 5877 5877 5877 5876 5876 5876 5874 5872 5872 5875 5876 5876 5878 5880 5879 5879 5881 5882 5882 5882 5883 5884 5885 5885 5887 5888 5888 5889 5891 5892 5893 5894 5895 5896 5897 5899 5900 5901 5902 5905 5907 5909 5911 5912 5913 5914 5915 5916 5917 5919 5920 5921 5921 5922 5923 5923 5924 5924 5925 5925 5926 5926 5927 5927 5928 5928 5929 5930 5930 5931
5891 5890 5889 5887 5885 5884 5882 5880 5879 5879 5879 5878 5877 5876 5875 5874 5874 5873 5873 5872 5871 5869 5868 5868 5869 5871 5871 5874 5874 5873 5875 5877 5877 5877 5878 5878 5880 5880 5881 5882 5883 5884 5885 5887 5888 5889 5890 5891 5892 5893 5895 5896 5897 5898 5900 5902 5905 5907 5909 5910 5911 5912 5913 5915 5916 5918 5919 5920 5921 5921 5922 5922 5923 5923 5924 5924 5925 5925 5926 5926 5927 5928 5928 5929 5929
5888 5886 5885 5884 5882 5881 5880 5878 5877 5875 5875 5874 5873 5872 5871 5870 5869 5868 5868 5868 5868 5866 5865 5864 5863 5863 5865 5869 5869 5869 5872 5871 5869 5871 5873 5874 5875 5875 5876 5877 5878 5879 5881 5882 5884 5885 5886 5887 5888 5889 5890 5891 5892 5894 5896 5898 5900 5903 5905 5907 5909 5910 5910 5912 5913 5915 5916 5918 5919 5920 5920 5921 5921 5922 5922 5923 5923 5924 5924 5925 5925 5926 5927 5927 5928
5884 5883 5882 5881 5880 5879 5877 5875 5874 5872 5871 5870 5869 5868 5866 5865 5864 5863 5863 5863 5863 5863 5862 5859 5857 5857 5860 5862 5863 5863 5866 5865 5864 5867 5868 5869 5869 5870 5871 5872 5873 5874 5876 5878 5879 5881 5882 5883 5884 5885 5885 5887 5888 5889 5891 5893 5895 5898 5901 5903 5905 5907 5908 5909 5910 5912 5913 5915 5916 5918 5919 5919 5920 5920 5921 5921 5922 5922 5923 5923 5924 5925 5925 5926 5926
5881 5880 5879 5878 5877 5876 5875 5873 5870 5869 5869 5867 5866 5864 5862 5859 5858 5857 5857 5857 5857 5858 5859 5856 5854 5854 5854 5855 5856 5857 5859 5859 5860 5861 5862 5863 5864 5865 5867 5868 5868 5870 5871 5873 5875 5877 5878 5879 5880 5880 5881 5882 5884 5885 5887 5888 5891 5893 5896 5899 5901 5903 5905 5906 5907 5909 5911 5912 5914 5915 5916 5917 5918 5918 5919 5920 5920 5921 5921 5922 5922 5923 5923 5924 5925
5878 5877 5875 5874 5872 5871 5870 5869 5867 5865 5864 5863 5861 5859 5856 5854 5853 5851 5851 5851 5850 5852 5853 5852 5851 5851 5849 5849 5851 5851 5851 5853 5855 5855 5856 5858 5859 5861 5863 5863 5863 5865 5867 5868 5870 5872 5874 5874 5875 5877 5877 5878 5880 5881 5882 5884 5886 5889 5892 5894 5897 5899 5901 5902 5904 5906 5907 5909 5911 5912 5913 5915 5916 5916 5917 5918 5918 5919 5919 5920 5920 5921 5922 5922 5923
5875 5873 5871 5869 5867 5866 5864 5862 5861 5860 5858 5856 5855 5853 5851 5849 5847 5847 5846 5846 5845 5845 5846 5845 5846 5846 5844 5844 5845 5844 5844 5846 5847 5848 5849 5852 5854 5856 5857 5857 5858 5860 5862 5864 5866 5868 5869 5870 5871 5873 5874 5874 5875 5877 5878 5880 5882 5885 5887 5890 5892 5894 5896 5898 5900 5902 5904 5906 5907 5909 5910 5912 5913 5914 5915 5916 5916 5917 5917 5918 5918 5919 5920 5920 5921
5872 5870 5867 5865 5863 5861 5858 5856 5854 5852 5852 5850 5848 5846 5845 5843 5841 5841 5840 5840 5839 5840 5839 5839 5839 5840 5839 5838 5839 5837 5837 5839 5840 5840 5842 5845 5847 5849 5851 5851 5852 5856 5858 5860 5862 5863 5865 5867 5868 5869 5870 5870 5871 5872 5874 5876 5878 5881 5883 5885 5887 5889 5892 5894 5896 5898 5900 5902 5904 5905 5907 5909 5910 5911 5912 5913 5914 5915 5915 5915 5916 5917 5917 5918 5919
5868 5866 5863 5861 5859 5857 5854 5851 5849 5847 5845 5844 5842 5840 5839 5837 5836 5835 5834 5834 5833 5833 5833 5832 5833 5833 5832 5832 5833 5831 5831 5833 5834 5833 5834 5837 5840 5843 5845 5846 5848 5851 5853 5855 5857 5857 5859 5862 5864 5864 5865 5866 5866 5867 5869 5871 5874 5876 5878 5880 5882 5884 5887 5890 5892 5894 5896 5898 5900 5902 5904 5905 5907 5908 5910 5911 5912 5912 5913 5913 5914 5914 5915 5916 5916
5863 5861 5859 5856 5854 5851 5848 5846 5844 5842 5840 5838 5837 5836 5834 5833 5832 5830 5829 5828 5828 5828 5828 5827 5826 5826 5826 5826 5827 5826 5827 5828 5828 5827 5828 5831 5834 5836 5839 5840 5842 5846 5849 5849 5851 5853 5854 5856 5859 5861 5861 5861 5862 5863 5864 5866 5869 5871 5873 5874 5876 5879 5882 5885 5887 5889 5891 5893 5895 5898 5900 5902 5903 5905 5906 5908 5909 5910 5910 5911 5911 5912 5912 5913 5914
5860 5857 5854 5852 5849 5846 5843 5841 5839 5837 5836 5834 5832 5831 5830 5828 5827 5826 5824 5823 5822 5822 5822 5821 5820 5820 5819 5819 5820 5820 5821 5822 5822 5822 5823 5825 5828 5830 5834 5834 5836 5841 5843 5843 5846 5848 5849 5851 5854 5855 5856 5857 5857 5858 5859 5861 5863 5865 5867 5869 5871 5873 5877 5880 5883 5885 5887 5889 5891 5893 5896 5898 5899 5901 5902 5904 5905 5906 5908 5908 5909 5909 5910 5910 5911
5857 5854 5851 5849 5846 5842 5839 5837 5834 5832 5831 5829 5827 5825 5824 5823 5822 5821 5820 5818 5817 5816 5815 5815 5815 5814 5813 5813 5813 5814 5814 5815 5816 5817 5818 5819 5821 5823 5826 5827 5829 5832 5835 5837 5840 5842 5844 5846 5848 5849 5850 5852 5852 5853 5854 5856 5858 5860 5862 5864 5865 5868 5871 5875 5878 5880 5882 5885 5887 5889 5891 5893 5895 5897 5899 5900 5902 5903 5904 5905 5906 5906 5907 5907 5908
5854 5851 5848 5846 5843 5839 5836 5833 5830 5828 5826 5825 5823 5821 5820 5818 5817 5816 5814 5813 5812 5810 5809 5809 5810 5808 5807 5808 5808 5808 5808 5809 5810 5811 5812 5813 5814 5816 5819 5821 5823 5825 5828 5831 5833 5835 5838 5840 5842 5843 5845 5846 5847 5848 5850 5851 5853 5855 5857 5859 5861 5863 5867 5870 5873 5876 5878 5880 5882 5884 5887 5889 5891 5893 5895 5896 5898 5899 5901 5902 5903 5903 5904 5904 5905
5851 5848 5845 5843 5840 5836 5833 5830 5827 5825 5823 5821 5819 5818 5816 5814 5813 5811 5810 5808 5807 5805 5804 5804 5804 5803 5802 5802 5802 5802 5803 5804 5804 5805 5806 5808 5808 5809 5811 5815 5817 5820 5823 5824 5826 5830 5832 5834 5836 5838 5839 5841 5842 5843 5845 5847 5848 5850 5852 5854 5857 5860 5862 5865 5868 5871 5873 5875 5877 5880 5882 5884 5886 5888 5890 5892 5894 5895 5897 5898 5899 5900 5901 5901 5902
5847 5845 5842 5839 5836 5833 5829 5826 5824 5822 5820 5818 5815 5813 5812 5810 5809 5807 5805 5803 5802 5800 5798 5798 5798 5798 5797 5797 5796 5796 5797 5798 5799 5799 5800 5801 5802 5803 5805 5808 5811 5813 5817 5818 5820 5826 5828 5829 5832 5834 5836 5837 5838 5838 5840 5842 5844 5845 5847 5850 5853 5855 5857 5860 5863 5866 5868 5870 5873 5875 5877 5880 5882 5884 5885 5887 5889 5891 5893 5894 5896 5897 5898 5898 5899
5843 5841 5838 5835 5832 5829 5826 5823 5820 5818 5816 5814 5811 5809 5807 5805 5804 5803 5801 5799 5796 5794 5793 5792 5791 5791 5791 5791 5791 5791 5791 5792 5792 5792 5794 5795 5796 5797 5799 5803 5804 5807 5810 5812 5815 5821 5823 5824 5828 5831 5832 5833 5833 5834 5835 5837 5840 5840 5842 5845 5847 5850 5853 5856 5858 5860 5863 5866 5868 5871 5873 5875 5877 5878 5880 5882 5884 5887 5888 5890 5892 5893 5894 5894 5895
5840 5837 5834 5831 5828 5825 5822 5819 5817 5814 5812 5810 5807 5805 5803 5800 5798 5797 5795 5793 5791 5789 5787 5785 5784 5784 5783 5783 5784 5784 5785 5786 5786 5786 5787 5788 5790 5792 5794 5796 5798 5800 5803 5805 5809 5814 5817 5819 5823 5825 5827 5829 5829 5830 5830 5832 5835 5835 5837 5840 5842 5845 5849 5851 5853 5856 5859 5862 5864 5867 5868 5870 5872 5874 5876 5878 5880 5882 5884 5886 5887 5888 5889 5890 5891
5835 5832 5830 5827 5824 5821 5818 5815 5813 5810 5808 5806 5803 5801 5798 5795 5792 5790 5789 5787 5785 5783 5781 5779 5778 5778 5777 5776 5777 5778 5778 5779 5780 5780 5780 5781 5783 5786 5787 5790 5791 5794 5797 5799 5803 5809 5812 5813 5816 5818 5820 5822 5824 5826 5826 5827 5830 5831 5833 5836 5838 5842 5845 5847 5850 5853 5856 5859 5861 5863 5864 5866 5867 5870 5871 5873 5875 5877 5879 5881 5882 5884 5885 5886 5887
5830 5827 5824 5822 5819 5816 5813 5811 5809 5806 5803 5801 5798 5796 5793 5790 5787 5784 5782 5780 5778 5777 5775 5773 5771 5771 5771 5771 5771 5771 5771 5772 5774 5775 5775 5775 5777 5779 5782 5784 5785 5788 5791 5793 5798 5805 5806 5806 5809 5812 5813 5816 5818 5820 5822 5823 5825 5826 5828 5832 5835 5838 5840 5843 5846 5848 5851 5854 5857 5858 5860 5861 5864 5866 5868 5869 5871 5872 5874 5876 5878 5879 5880 5881 5882
5825 5822 5819 5816 5814 5811 5808 5806 5804 5801 5798 5796 5793 5791 5789 5785 5782 5778 5775 5773 5772 5771 5769 5766 5764 5763 5763 5764 5764 5764 5764 5765 5767 5768 5769 5771 5772 5773 5776 5778 5779 5782 5785 5788 5792 5798 5800 5801 5803 5805 5807 5810 5812 5814 5816 5817 5820 5822 5824 5828 5831 5833 5836 5839 5841 5843 5846 5849 5851 5853 5855 5857 5859 5861 5863 5865 5866 5867 5869 5871 5873 5874 5875 5876 5877
5820 5817 5814 5811 5808 5805 5803 5800 5798 5796 5793 5790 5787 5785 5783 5780 5777 5773 5769 5767 5766 5765 5763 5760 5757 5756 5756 5755 5756 5756 5757 5758 5760 5761 5763 5765 5766 5767 5770 5772 5774 5777 5780 5783 5786 5790 5793 5796 5798 5799 5802 5804 5806 5808 5810 5811 5814 5818 5820 5823 5826 5828 5831 5834 5836 5838 5841 5844 5846 5848 5850 5852 5854 5856 5858 5860 5861 5863 5865 5866 5868 5869 5870 5871 5872
5815 5812 5809 5806 5803 5800 5797 5795 5792 5790 5787 5784 5781 5779 5777 5774 5772 5768 5764 5762 5760 5759 5757 5755 5752 5749 5748 5748 5747 5748 5749 5750 5752 5754 5755 5757 5759 5761 5763 5766 5769 5772 5775 5778 5781 5783 5786 5790 5792 5794 5796 5798 5800 5802 5803 5805 5810 5814 5816 5818 5821 5824 5827 5829 5831 5833 5837 5839 5840 5843 5845 5846 5849 5851 5853 5855 5857 5859 5860 5862 5863 5864 5865 5866 5867
5811 5807 5804 5801 5798 5795 5792 5789 5787 5784 5781 5778 5775 5773 5770 5768 5765 5762 5759 5757 5754 5753 5751 5748 5746 5743 5741 5740 5739 5740 5741 5742 5744 5746 5748 5750 5752 5754 5756 5759 5762 5766 5768 5771 5775 5777 5779 5783 5786 5788 5790 5792 5795 5796 5797 5800 5805 5810 5812 5814 5816 5818 5822 5824 5826 5829 5832 5834 5835 5837 5839 5841 5843 5846 5848 5850 5852 5854 5855 5857 5858 5859 5860 5861 5862
5806 5803 5799 5796 5793 5790 5787 5784 5781 5778 5775 5772 5769 5766 5764 5761 5759 5756 5754 5751 5749 5747 5744 5742 5739 5737 5735 5733 5732 5733 5733 5734 5736 5739 5742 5744 5745 5747 5750 5753 5756 5760 5762 5764 5768 5771 5773 5776 5780 5782 5784 5787 5789 5791 5793 5795 5799 5804 5808 5809 5811 5814 5818 5820 5821 5823 5826 5828 5831 5832 5833 5836 5839 5841 5844 5846 5847 5849 5850 5852 5853 5854 5855 5856 5856
5801 5798 5795 5792 5788 5785 5782 5779 5776 5773 5770 5766 5763 5761 5758 5755 5753 5750 5748 5746 5743 5740 5738 5735 5732 5730 5728 5726 5725 5725 5726 5727 5728 5731 5735 5737 5739 5741 5743 5746 5749 5753 5756 5758 5761 5765 5767 5769 5773 5776 5779 5782 5784 5786 5787 5789 5793 5798 5802 5805 5808 5811 5813 5815 5817 5818 5820 5823 5825 5826 5829 5832 5834 5837 5839 5841 5843 5844 5845 5846 5848 5849 5850 5851 5852
5796 5793 5790 5787 5784 5780 5777 5774 5771 5767 5764 5761 5758 5755 5754 5751 5748 5745 5743 5740 5738 5734 5732 5729 5727 5724 5722 5721 5719 5719 5719 5720 5722 5724 5728 5731 5732 5734 5737 5740 5743 5746 5749 5751 5754 5758 5761 5764 5767 5770 5773 5777 5780 5781 5781 5783 5787 5793 5798 5801 5804 5806 5807 5809 5812 5812 5814 5817 5819 5821 5824 5827 5830 5832 5834 5836 5838 5840 5841 5842 5843 5844 5845 5846 5847
5791 5788 5785 5782 5779 5775 5772 5768 5765 5762 5759 5756 5752 5750 5749 5746 5743 5741 5738 5736 5733 5730 5727 5725 5722 5719 5716 5715 5715 5714 5713 5714 5716 5718 5720 5722 5724 5727 5731 5734 5737 5739 5742 5744 5747 5751 5755 5758 5761 5764 5767 5771 5775 5776 5777 5779 5783 5788 5793 5796 5798 5800 5802 5804 5806 5807 5808 5811 5814 5817 5820 5822 5824 5827 5829 5831 5834 5835 5836 5837 5838 5840 5841 5842 5843
5785 5783 5780 5777 5774 5771 5767 5764 5760 5757 5754 5751 5748 5745 5744 5742 5739 5736 5734 5731 5728 5725 5722 5720 5718 5715 5712 5710 5710 5709 5709 5708 5709 5712 5714 5716 5719 5722 5725 5728 5730 5732 5735 5738 5741 5744 5748 5751 5754 5757 5761 5766 5769 5771 5772 5775 5778 5782 5786 5790 5793 5796 5797 5799 5801 5802 5804 5807 5810 5813 5815 5817 5820 5822 5824 5827 5829 5831 5832 5833 5834 5835 5836 5837 5838
5780 5777 5775 5772 5769 5765 5762 5759 5755 5752 5749 5746 5743 5741 5739 5737 5735 5732 5729 5726 5723 5720 5717 5715 5713 5710 5708 5706 5705 5704 5704 5704 5705 5708 5710 5713 5715 5717 5720 5722 5724 5726 5729 5732 5735 5738 5741 5745 5748 5751 5755 5760 5763 5766 5768 5770 5772 5776 5780 5783 5788 5791 5793 5795 5798 5799 5800 5803 5805 5807 5810 5812 5815 5817 5820 5823 5824 5826 5827 5828 5830 5830 5831 5833 5834
5775 5772 5769 5766 5763 5760 5757 5754 5750 5747 5744 5742 5739 5736 5735 5733 5731 5728 5725 5722 5719 5716 5713 5711 5708 5706 5703 5701 5699 5699 5699 5700 5701 5703 5706 5708 5711 5713 5715 5717 5720 5722 5724 5727 5729 5732 5735 5739 5742 5745 5749 5754 5758 5761 5763 5765 5767 5770 5773 5777 5782 5786 5789 5791 5794 5795 5797 5799 5800 5802 5805 5807 5810 5814 5816 5819 5820 5821 5823 5824 5825 5826 5827 5828 5829
5770 5767 5764 5761 5758 5755 5752 5749 5745 5742 5740 5737 5734 5732 5731 5729 5727 5724 5721 5718 5716 5713 5710 5707 5704 5701 5699 5696 5695 5694 5694 5696 5697 5698 5701 5704 5706 5709 5711 5713 5715 5717 5720 5722 5724 5726 5729 5733 5736 5740 5745 5749 5753 5756 5759 5760 5762 5764 5768 5772 5778 5781 5783 5787 5789 5790 5792 5794 5796 5799 5800 5803 5807 5810 5812 5814 5815 5816 5818 5820 5821 5822 5823 5824 5825
5766 5762 5759 5755 5752 5749 5746 5744 5741 5738 5736 5733 5730 5728 5727 5725 5723 5720 5718 5715 5712 5709 5706 5703 5701 5698 5695 5692 5691 5690 5690 5691 5692 5694 5697 5699 5701 5704 5706 5708 5710 5712 5714 5717 5719 5720 5723 5727 5731 5736 5740 5744 5748 5751 5754 5755 5757 5760 5764 5768 5772 5775 5778 5782 5784 5784 5786 5789 5793 5795 5797 5799 5803 5805 5807 5809 5811 5812 5813 5815 5816 5818 5819 5820 5821
5760 5757 5754 5750 5747 5744 5741 5739 5736 5734 5732 5730 5727 5725 5724 5722 5720 5717 5715 5712 5709 5706 5702 5699 5697 5694 5691 5689 5687 5686 5686 5686 5687 5690 5692 5694 5696 5698 5700 5702 5704 5706 5708 5711 5714 5716 5719 5722 5726 5730 5734 5738 5742 5746 5748 5750 5752 5755 5759 5762 5765 5769 5772 5776 5778 5779 5781 5786 5789 5792 5794 5796 5798 5800 5802 5804 5805 5807 5809 5811 5812 5813 5815 5816 5817
5755 5752 5749 5746 5743 5739 5736 5734 5732 5730 5728 5726 5724 5722 5720 5719 5717 5714 5711 5709 5706 5703 5699 5696 5694 5691 5688 5686 5684 5682 5682 5682 5682 5684 5687 5689 5692 5693 5695 5697 5699 5700 5703 5705 5708 5711 5714 5717 5720 5724 5728 5731 5735 5739 5742 5744 5747 5750 5752 5755 5759 5762 5765 5769 5772 5775 5778 5782 5785 5787 5790 5792 5794 5796 5798 5799 5800 5802 5804 5806 5808 5809 5810 5812 5813
5750 5747 5744 5742 5739 5736 5733 5730 5728 5726 5724 5722 5721 5719 5718 5716 5714 5711 5709 5706 5704 5701 5697 5693 5691 5689 5686 5683 5681 5678 5678 5677 5678 5680 5682 5685 5687 5689 5690 5692 5693 5696 5698 5701 5702 5705 5708 5711 5714 5718 5722 5725 5729 5733 5735 5738 5742 5745 5747 5749 5753 5757 5760 5763 5767 5770 5773 5777 5780 5783 5785 5787 5789 5791 5793 5794 5796 5798 5800 5801 5803 5805 5806 5808 5809
5746 5743 5740 5737 5734 5731 5729 5727 5725 5723 5721 5719 5717 5716 5715 5713 5711 5709 5706 5704 5701 5699 5695 5691 5688 5686 5684 5681 5678 5676 5674 5674 5674 5675 5677 5680 5682 5684 5686 5687 5688 5691 5694 5696 5697 5700 5704 5706 5710 5714 5717 5720 5724 5728 5730 5733 5737 5740 5741 5744 5748 5751 5754 5758 5763 5766 5769 5772 5776 5778 5780 5783 5785 5787 5788 5790 5792 5794 5795 5797 5800 5801 5802 5803 5805
5741 5738 5735 5733 5731 5728 5726 5724 5722 5720 5718 5716 5714 5713 5712 5711 5708 5706 5704 5702 5699 5696 5693 5689 5687 5684 5682 5679 5677 5674 5672 5671 5672 5672 5673 5674 5676 5679 5681 5682 5683 5686 5689 5691 5693 5696 5699 5703 5706 5710 5714 5716 5720 5723 5726 5729 5732 5734 5736 5739 5742 5744 5748 5754 5759 5762 5765 5768 5772 5774 5776 5779 5780 5782 5784 5786 5788 5790 5791 5793 5796 5797 5798 5799 5801